User: anonymous   Login
Location: Unspecified
(0.0000°N, 0.0000°E)
Time: 23:59:16
(UTC+00:00)
Language:

STARLINK-6262 - Orbit

View from above orbital plane
View from above orbital plane
View from above satellite
View from above satellite

Ground track
Ground track

The orbit is defined by the following mean orbital elements,

1 57091U          26145.65483951 +.00000000 +00000-0 +67026-4 0 00009
2 57091  43.0060  21.2499 0001346 261.4147  98.6552 15.27577390    04
Epoch (UTC): 25 May 2026 15:42:58
Eccentricity: 0.0001346
inclination: 43.0060°
perigee height: 482 km
apogee height: 484 km
right ascension of ascending node: 21.2499°
argument of perigee: 261.4147°
revolutions per day: 15.27577390
mean anomaly at epoch: 98.6552°

The dashed part of the orbit path shows where the satellite is in the earth's shadow,  

DLR